This is the latest recevied weather packets stored in our database for station/object SP6PGH-13. If no packets are shown the sender has not sent any weather packets the latest 10 day(s).
| Time | Temp. | Humidity | Pressure | Rain* | Wind** | Luminosity | Snow |
|---|---|---|---|---|---|---|---|
| 1788403126 | 11.67° C | 93% | 1005.5 hPa | - | - | - | - |
| 1788402225 | 12.22° C | 93% | 1005.6 hPa | - | - | - | - |
| 1788401324 | 12.22° C | 93% | 1005.3 hPa | - | - | - | - |
| 1788380601 | 14.44° C | 88% | 1005.5 hPa | - | - | - | - |
| 1788379700 | 14.44° C | 87% | 1005.5 hPa | - | - | - | - |
| 1788378799 | 14.44° C | 86% | 1005.5 hPa | - | - | - | - |
| 1788377898 | 15° C | 86% | 1005.4 hPa | - | - | - | - |
| 1788376997 | 15.56° C | 86% | 1005.7 hPa | - | - | - | - |
| 1788376096 | 15.56° C | 84% | 1005.7 hPa | - | - | - | - |
| 1788373394 | 16.67° C | 82% | 1005.7 hPa | - | - | - | - |
| 1788371592 | 17.78° C | 77% | 1005.4 hPa | - | - | - | - |
| 1788370691 | 18.33° C | 77% | 1005.4 hPa | - | - | 1 W/m² | - |
| 1788368888 | 19.44° C | 67% | 1005.1 hPa | - | - | 17 W/m² | - |
| 1788364383 | 24.44° C | 45% | 1005.2 hPa | - | - | 139 W/m² | - |
| 1788363482 | 22.78° C | 48% | 1005.2 hPa | - | - | 171 W/m² | - |
| 1788359878 | 22.22° C | 55% | 1005.6 hPa | - | - | 166 W/m² | - |
| 1788358977 | 22.78° C | 56% | 1005.6 hPa | - | - | 191 W/m² | - |
| 1788358076 | 22.78° C | 56% | 1005.6 hPa | - | - | 225 W/m² | - |
| 1788357175 | 22.78° C | 54% | 1005.6 hPa | - | - | 197 W/m² | - |
| 1788356274 | 23.33° C | 57% | 1005.6 hPa | - | - | 253 W/m² | - |
| 1788355373 | 22.78° C | 52% | 1005.7 hPa | - | - | 259 W/m² | - |
| 1788352669 | 23.89° C | 50% | 1006 hPa | - | - | 348 W/m² | - |
| 1788351768 | 22.78° C | 55% | 1006.2 hPa | - | - | 382 W/m² | - |
| 1788349066 | 23.33° C | 55% | 1006.5 hPa | - | - | 668 W/m² | - |
| 1788348164 | 22.78° C | 57% | 1006.7 hPa | - | - | 666 W/m² | - |
* Rain since midnight (hover to see other rain measurements)
** Current wind speed in m/s (hover to see current wind gust speed)